Satellite-Ground Cal/Val Region Overpasses Predictions

Prediction of Satellite NPP Overpassing Cal/Val Region: PacNW

Region Location: (Latitude: 10.00, Longitude: 139.50) to (Latitude: 22.70, Longitude: 165.60).

Table of predicted overpasses for the next 14.0 days since TLE Epoch: 9/21/2018
Interval Starting Time Starting Location Ending Time Ending Location
1 09/22/2018 02:27:05 ( 10.03, 163.08) 09/22/2018 02:30:40 ( 22.65, 160.07)
2 09/22/2018 14:58:58 ( 22.65, 160.32) 09/22/2018 15:02:33 ( 10.03, 157.31)
3 09/23/2018 02:10:46 ( 19.60, 165.59) 09/23/2018 02:11:38 ( 22.65, 164.83)
4 09/23/2018 03:49:33 ( 10.03, 142.46) 09/23/2018 03:53:05 ( 22.48, 139.50)
5 09/23/2018 14:39:57 ( 22.66, 165.07) 09/23/2018 14:43:32 ( 10.04, 162.07)
6 09/23/2018 16:21:27 ( 22.65, 139.70) 09/23/2018 16:21:40 ( 21.89, 139.51)
7 09/24/2018 03:30:32 ( 10.03, 147.22) 09/24/2018 03:34:07 ( 22.65, 144.21)
8 09/24/2018 16:02:26 ( 22.66, 144.46) 09/24/2018 16:06:01 ( 10.04, 141.45)
9 09/25/2018 03:11:30 ( 10.03, 151.98) 09/25/2018 03:15:05 ( 22.65, 148.97)
10 09/25/2018 15:43:24 ( 22.66, 149.22) 09/25/2018 15:46:59 ( 10.04, 146.21)
11 09/26/2018 02:52:29 ( 10.02, 156.74) 09/26/2018 02:56:04 ( 22.64, 153.73)
12 09/26/2018 15:24:23 ( 22.66, 153.97) 09/26/2018 15:27:58 ( 10.04, 150.97)
13 09/27/2018 02:33:27 ( 10.02, 161.49) 09/27/2018 02:37:02 ( 22.64, 158.49)
14 09/27/2018 15:05:21 ( 22.66, 158.73) 09/27/2018 15:08:56 ( 10.04, 155.73)
15 09/28/2018 02:15:15 ( 12.90, 165.59) 09/28/2018 02:18:02 ( 22.70, 163.23)
16 09/28/2018 03:55:56 ( 10.02, 140.88) 09/28/2018 03:57:36 ( 15.90, 139.51)
17 09/28/2018 14:46:20 ( 22.66, 163.49) 09/28/2018 14:49:55 ( 10.04, 160.48)
18 09/29/2018 03:36:54 ( 10.02, 145.63) 09/29/2018 03:40:29 ( 22.64, 142.63)
19 09/29/2018 14:30:27 ( 11.57, 165.59) 09/29/2018 14:30:53 ( 10.05, 165.24)
20 09/29/2018 16:08:48 ( 22.66, 142.87) 09/29/2018 16:12:23 ( 10.04, 139.87)
21 09/30/2018 03:17:53 ( 10.02, 150.39) 09/30/2018 03:21:28 ( 22.64, 147.39)
22 09/30/2018 15:49:47 ( 22.66, 147.63) 09/30/2018 15:53:22 ( 10.04, 144.62)
23 10/01/2018 02:58:52 ( 10.02, 155.15) 10/01/2018 03:02:27 ( 22.64, 152.14)
24 10/01/2018 15:30:45 ( 22.66, 152.39) 10/01/2018 15:34:20 ( 10.05, 149.38)
25 10/02/2018 02:39:50 ( 10.02, 159.91) 10/02/2018 02:43:26 ( 22.70, 156.89)
26 10/02/2018 15:11:44 ( 22.67, 157.14) 10/02/2018 15:15:19 ( 10.05, 154.14)
27 10/03/2018 02:20:49 ( 10.02, 164.66) 10/03/2018 02:24:25 ( 22.70, 161.64)
28 10/03/2018 14:52:42 ( 22.67, 161.90) 10/03/2018 14:56:17 ( 10.05, 158.90)
29 10/04/2018 03:43:17 ( 10.02, 144.05) 10/04/2018 03:46:52 ( 22.64, 141.04)
30 10/04/2018 14:34:55 ( 18.33, 165.59) 10/04/2018 14:37:16 ( 10.05, 163.65)
31 10/04/2018 16:15:11 ( 22.66, 141.28) 10/04/2018 16:17:16 ( 15.33, 139.50)
32 10/05/2018 03:24:16 ( 10.02, 148.80) 10/05/2018 03:27:51 ( 22.64, 145.80)


NCC Satellite Cal/Val Overpasses Prediction Service
